Regional Weather Roundup
Issued by NWS Little Rock, AR

Home | Current Version | Previous Version | Graphics & Text | Print | Product List | Glossary On
Versions: 1 2 3 4 5 6 7 8 9 10 11 12 13 14 15 16 17 18 19 20 21 22 23 24 25 26 27 28 29 30 31 32
000
ASUS44 KLZK 180705
RWRLZK

WEATHER ROUNDUP FOR ARKANSAS
NATIONAL WEATHER SERVICE LITTLE ROCK AR
200 AM CDT WED OCT 18 2017

NOTE: "FAIR" INDICATES FEW OR NO CLOUDS BELOW 12,000 FEET WITH NO
SIGNIFICANT WEATHER AND/OR OBSTRUCTIONS TO VISIBILITY.

ARZ001-003-010-029-180800-
NORTHWEST ARKANSAS

CITY           SKY/WX    TMP DP  RH WIND       PRES   REMARKS
FAYETTEVILLE   CLEAR     39  39 100 CALM      30.17S
FORT SMITH     CLEAR     51  47  86 NE3       30.18S
HARRISON       CLEAR     48  41  76 SE7       30.18F
BENTONVILLE    CLEAR     48  42  80 SE6       30.19S
ROGERS         CLEAR     46  44  93 SE5       30.18S
SILOAM SPGS    CLEAR     48  42  80 SE5       30.18S
HIGHFILL       CLEAR     44  41  89 CALM      30.18S
$$

ARZ004-005-016-180800-
NORTH CENTRAL ARKANSAS

CITY           SKY/WX    TMP DP  RH WIND       PRES   REMARKS
BATESVILLE     CLEAR     45  43  93 CALM      30.22S
FLIPPIN        CLEAR     43  40  89 CALM      30.20S
MTN HOME       CLEAR     48  42  80 SE3       30.19S
$$

ARZ040-041-180800-
WEST CENTRAL ARKANSAS

CITY           SKY/WX    TMP DP  RH WIND       PRES   REMARKS
MENA           CLEAR     41  41 100 CALM      30.21S
$$

ARZ009-017-025-026-028-180800-
NORTHEAST ARKANSAS

CITY           SKY/WX    TMP DP  RH WIND       PRES   REMARKS
JONESBORO      CLEAR     46  45  96 CALM      30.22S
NEWPORT        CLEAR     46  44  93 CALM      30.22S
WALNUT RIDGE   CLEAR     44  42  93 N5        30.22S
BLYTHEVILLE    CLEAR     50  46  86 CALM      30.23S
$$

ARZ022-023-033-042-044-180800-
CENTRAL ARKANSAS

CITY           SKY/WX    TMP DP  RH WIND       PRES   REMARKS
LITTLE ROCK    CLEAR     48  47  96 CALM      30.22S
N LITTLE ROCK    N/A     55  43  64 S3        30.23
JACKSONVILLE   CLEAR     43  41  93 CALM      30.21S
SEARCY         CLEAR     44  44 100 CALM      30.22S
HOT SPRINGS    CLEAR     47  43  86 CALM      30.21S
RUSSELLVILLE   CLEAR     44  43  96 CALM      30.20S
CLINTON        FAIR      41  39  93 CALM      30.22F
$$

ARZ036-180800-
EAST ARKANSAS

CITY           SKY/WX    TMP DP  RH WIND       PRES   REMARKS
WEST MEMPHIS   CLEAR     49  49 100 CALM      30.21S
$$

ARZ050-053-066-070-073-180800-
SOUTHWEST ARKANSAS

CITY           SKY/WX    TMP DP  RH WIND       PRES   REMARKS
ARKADELPHIA    FAIR      40  38  93 CALM      30.22
CAMDEN         PTCLDY    43  41  93 CALM      30.20S
TEXARKANA      CLEAR     56  43  61 SE5       30.20S
EL DORADO      CLEAR     46  45  96 CALM      30.20F
DE QUEEN       PTCLDY    42  42 100 CALM      30.19S FOG
$$

ARZ056-057-069-180800-
SOUTHEAST ARKANSAS

CITY           SKY/WX    TMP DP  RH WIND       PRES   REMARKS
PINE BLUFF     CLEAR     45  43  93 CALM      30.21F
STUTTGART      CLEAR     51  44  77 SE3       30.21S
MONTICELLO     CLEAR     49  45  86 CALM      30.21F

$$






USA.gov is the U.S. government's official web portal to all federal, state and local government web resources and services.